[[{"header":{"parameterUnit":"m.s-1","parameterCategory":1,"la1":30.2991,"la2":30.254,"lo1":-89.0895,"lo2":-89.0444,"dy":0.0017,"dx":0.0017,"nx":28,"ny":28,"refTime":"2025-02-03T09:00:00:Z","depth":0,"parameterNumber":2,"parameterNumberName":"U-component_of_WINDS"},"data":[0,0,0,0,0,0,0,0,0,0,0,0,0,0,0,0,0,0,0,0,0,0,0,0,0,0,0,0,0,0,0,0,0,0,0,0,0,0,0,0,0,0,0,0,0,0,0,0,0,0,0,0,0,0,0,0,0,0,-1.5809,-1.581,0,-1.5886,-1.5886,-1.5887,-1.5879,-1.5878,-1.5876,-1.5875,-1.5954,-1.5957,-1.596,0,0,0,0,0,0,0,0,0,0,0,0,0,-1.5658,-1.5661,-1.5809,-1.581,-1.5811,-1.5885,-1.5886,-1.5887,-1.5879,-1.5878,-1.5876,-1.5875,-1.5953,-1.5956,-1.596,0,0,0,0,0,0,0,0,0,0,0,0,0,-1.5728,-1.5662,-1.5809,-1.5816,-1.5817,-1.5885,-1.5886,-1.5888,-1.5879,-1.5878,-1.5876,-1.5874,-1.5951,-1.5956,-1.5961,-1.6027,0,0,-1.5976,-1.5978,0,0,0,0,0,0,0,0,-1.5724,-1.5733,-1.5814,-1.5816,-1.5817,-1.5871,-1.5862,-1.5934,-1.588,-1.5856,-1.5875,-1.5873,-1.5928,-1.5934,-1.5953,-1.6031,-1.6034,-1.5976,-1.5979,-1.5981,-1.5982,0,0,0,0,0,0,0,-1.5719,-1.573,-1.5839,-1.5815,-1.5817,-1.5816,-1.5824,-1.5876,-1.5901,-1.5858,-1.5857,-1.5866,-1.5928,-1.5948,-1.5954,-1.6035,-1.5976,-1.598,-1.5983,-1.5985,-1.6173,-1.6175,0,0,0,0,0,0,-1.5712,-1.5726,-1.5837,-1.5842,-1.5765,-1.582,-1.5829,-1.5855,-1.59,-1.5905,-1.5868,-1.5866,-1.5941,-1.5949,-1.5957,-1.6038,-1.5981,-1.5986,-1.5988,-1.6171,-1.6173,-1.6175,0,0,0,0,0,0,-1.5709,-1.5722,-1.5834,-1.5784,-1.5798,-1.5824,-1.5854,-1.5858,-1.5878,-1.5908,-1.5913,-1.5883,-1.594,-1.595,-1.601,-1.604,-1.5988,-1.5992,-1.6168,-1.6171,-1.6174,-1.62,0,0,0,0,0,0,-1.5705,-1.5721,-1.5746,-1.5785,-1.5801,-1.5885,-1.5856,-1.5861,-1.5886,-1.5884,-1.5924,-1.5929,-1.5939,-1.6003,-1.6015,-1.6046,-1.5996,-1.6166,-1.617,-1.6173,-1.6196,-1.6203,-1.6209,0,0,0,0,0,-1.57,-1.575,-1.5747,-1.5761,-1.5832,-1.5887,-1.5896,-1.5907,-1.5888,-1.5914,-1.5934,-1.5927,-1.6036,-1.6009,-1.6022,-1.6056,-1.6164,-1.6168,-1.6173,-1.6193,-1.6202,-1.6209,0,0,0,0,0,0,-1.5714,-1.5755,-1.5753,-1.5817,-1.5849,-1.5885,-1.5917,-1.5915,-1.5953,-1.5949,-1.5961,-1.597,-1.603,-1.6049,-1.6019,-1.6123,-1.6097,-1.6105,-1.6108,-1.6116,-1.6123,-1.6116,-1.6,0,0,0,0,0,-1.5725,-1.5766,-1.5799,-1.5853,-1.5869,-1.5891,-1.5915,-1.5921,-1.5954,-1.5967,-1.5991,-1.6024,-1.6065,-1.6092,-1.6132,-1.6199,-1.6208,-1.6229,-1.6236,-1.6241,-1.6247,-1.6285,-1.6294,-1.6191,-1.6191,-1.6191,0,0,-1.5748,-1.5775,-1.58,-1.5857,-1.5882,-1.5924,-1.5902,-1.5947,-1.5979,-1.5974,-1.6031,-1.6051,-1.6088,-1.6152,-1.6181,-1.6169,-1.6278,-1.6247,-1.6251,-1.6254,-1.6291,-1.63,-1.6309,-1.6194,-1.6193,-1.6193,0,0,-1.581,-1.5835,-1.5883,-1.5908,-1.5947,-1.5961,-1.5973,-1.601,-1.6023,-1.6081,-1.6079,-1.6117,-1.6188,-1.6215,-1.6238,-1.6313,-1.6308,-1.6325,-1.6359,-1.6396,-1.6404,-1.6411,-1.6438,-1.6447,-1.6332,-1.6332,-1.6332,0,-1.5833,-1.5896,-1.5907,-1.5953,-1.5979,-1.5977,-1.6026,-1.605,-1.61,-1.6118,-1.6104,-1.6194,-1.6219,-1.6289,-1.6308,-1.6326,-1.634,-1.632,-1.6402,-1.6409,-1.6416,-1.6442,-1.6452,-1.6333,-1.6333,-1.6333,-1.6333,0,-1.5923,-1.5967,-1.6001,-1.6049,-1.6078,-1.6125,-1.6144,-1.6173,-1.6177,-1.6193,-1.6253,-1.6283,-1.6329,-1.6347,-1.6351,-1.6419,-1.641,-1.6399,-1.6373,-1.6428,-1.6452,-1.6462,-1.6336,-1.6335,-1.6335,-1.6334,0,0,-1.5995,-1.605,-1.6062,-1.6084,-1.6127,-1.6161,-1.6209,-1.6255,-1.6279,-1.6314,-1.6354,-1.6415,-1.6406,-1.6432,-1.6439,-1.6472,-1.6529,-1.6457,-1.6458,-1.6469,-1.6606,-1.6613,-1.6624,-1.6527,-1.6529,-1.6531,-1.6603,0,-1.6061,-1.6145,-1.6157,-1.6231,-1.6272,-1.6272,-1.6314,-1.6345,-1.6362,-1.64,-1.6419,-1.6462,-1.6446,-1.6462,-1.6494,-1.6515,-1.6557,-1.6511,-1.6565,-1.6567,-1.6554,-1.6637,-1.6645,-1.6711,-1.6612,-1.6614,-1.6615,0,-1.6149,-1.6187,-1.6265,-1.6303,-1.6321,-1.6358,-1.6401,-1.6437,-1.6473,-1.6484,-1.6514,-1.6518,-1.6568,-1.6541,-1.6611,-1.6579,-1.6603,-1.6617,-1.6619,-1.6624,-1.6593,-1.6643,-1.6732,-1.6742,-1.663,-1.6629,-1.6628,0,-1.6193,-1.6264,-1.6319,-1.6339,-1.6385,-1.6411,-1.6432,-1.6466,-1.6493,-1.6531,-1.6549,-1.6592,-1.6616,-1.665,-1.6666,-1.6645,-1.6735,-1.6709,-1.6745,-1.6744,-1.6762,-1.6761,-1.6855,-1.6779,-1.6779,-1.6779,-1.6778,0,-1.6265,-1.6313,-1.634,-1.6374,-1.6428,-1.6443,-1.6496,-1.6516,-1.6547,-1.6586,-1.6589,-1.6625,-1.6644,-1.6684,-1.6697,-1.6753,-1.6764,-1.6773,-1.6776,-1.6772,-1.6771,-1.6787,-1.6782,-1.6781,-1.6781,-1.678,-1.678,0,-1.6323,-1.6343,-1.6404,-1.6444,-1.6455,-1.6493,-1.6527,-1.6561,-1.6578,-1.6627,-1.664,-1.6667,-1.6714,-1.6733,-1.6791,-1.68,-1.6864,-1.6863,-1.6851,-1.6852,-1.6886,-1.6882,-1.6993,-1.7009,-1.6923,-1.6923,-1.6924,0,-1.6367,-1.6404,-1.6448,-1.6474,-1.6495,-1.6538,-1.6565,-1.6582,-1.661,-1.6655,-1.6684,-1.6731,-1.6769,-1.6844,-1.6869,-1.6914,-1.6914,-1.695,-1.692,-1.6916,-1.6914,-1.6911,-1.6915,-1.6955,-1.6956,-1.6956,-1.6957,0,-1.6443,-1.6452,-1.6491,-1.6535,-1.6568,-1.6603,-1.6637,-1.6659,-1.6681,-1.6713,-1.6761,-1.6791,-1.685,-1.6896,-1.6942,-1.6964,-1.6965,-1.6966,-1.6977,-1.6973,-1.6964,-1.6969,-1.6865,-1.6963,-1.6963,-1.6962,-1.6962,-1.6962,-1.6495,-1.6528,-1.6564,-1.6609,-1.6636,-1.6669,-1.6703,-1.6725,-1.6765,-1.6814,-1.6822,-1.6873,-1.691,-1.6972,-1.6996,-1.7037,-1.7027,-1.7043,-1.7046,-1.7049,-1.7051,-1.6959,-1.7045,-1.7045,-1.7045,-1.7045,-1.7045,0,-1.6571,-1.6595,-1.6636,-1.6684,-1.6719,-1.6717,-1.6755,-1.6784,-1.6829,-1.6864,-1.6901,-1.6957,-1.7003,-1.7032,-1.7079,-1.7106,-1.7107,-1.7117,-1.7115,-1.712,-1.7057,-1.7043,-1.7115,-1.7115,-1.7115,-1.7115,-1.7115,-1.7115,-1.6615,-1.667,-1.6683,-1.6753,-1.6777,-1.6827,-1.6849,-1.6879,-1.6907,-1.6969,-1.7007,-1.7026,-1.7059,-1.7107,-1.715,-1.7157,-1.7174,-1.7185,-1.7191,-1.7132,-1.7124,-1.7117,-1.7104,-1.7188,-1.7188,-1.7251,-1.7252,-1.7252]},{"header":{"parameterUnit":"m.s-1","parameterCategory":1,"la1":30.2991,"la2":30.254,"lo1":-89.0895,"lo2":-89.0444,"dy":0.0017,"dx":0.0017,"nx":28,"ny":28,"refTime":"2025-02-03T09:00:00:Z","depth":0,"parameterNumber":3,"parameterNumberName":"V-component_of_WINDS"},"data":[0,0,0,0,0,0,0,0,0,0,0,0,0,0,0,0,0,0,0,0,0,0,0,0,0,0,0,0,0,0,0,0,0,0,0,0,0,0,0,0,0,0,0,0,0,0,0,0,0,0,0,0,0,0,0,0,0,0,1.2472,1.2473,0,1.2528,1.2529,1.2529,1.259,1.2591,1.2592,1.2592,1.2647,1.2647,1.2648,0,0,0,0,0,0,0,0,0,0,0,0,0,1.2418,1.2418,1.2472,1.2473,1.2474,1.2528,1.2529,1.2529,1.259,1.2591,1.2592,1.2593,1.2646,1.2647,1.2648,0,0,0,0,0,0,0,0,0,0,0,0,0,1.2454,1.2419,1.2472,1.251,1.2514,1.2528,1.2529,1.2529,1.2589,1.2591,1.2592,1.2593,1.2646,1.2647,1.2648,1.2627,0,0,1.2651,1.2651,0,0,0,0,0,0,0,0,1.2452,1.2456,1.2504,1.2508,1.2512,1.2553,1.2529,1.2562,1.2589,1.2561,1.2592,1.2594,1.2614,1.2618,1.2625,1.263,1.2632,1.2651,1.2651,1.2652,1.2652,0,0,0,0,0,0,0,1.2449,1.2454,1.2494,1.2505,1.251,1.2525,1.2531,1.2536,1.2579,1.2563,1.2568,1.2574,1.2617,1.2624,1.2627,1.2633,1.2651,1.2652,1.2652,1.2653,1.2626,1.2625,0,0,0,0,0,0,1.2441,1.2451,1.2492,1.2496,1.2485,1.2524,1.2532,1.2539,1.258,1.2587,1.2573,1.2576,1.2622,1.2626,1.2629,1.261,1.2652,1.2653,1.2653,1.2627,1.2626,1.2625,0,0,0,0,0,0,1.244,1.2444,1.249,1.2475,1.2482,1.2524,1.2531,1.2539,1.2547,1.2587,1.2594,1.2572,1.2623,1.2628,1.2628,1.2612,1.2653,1.2654,1.2629,1.2627,1.2625,1.2569,0,0,0,0,0,0,1.2438,1.2443,1.2436,1.2474,1.2483,1.2488,1.253,1.2539,1.2549,1.2554,1.2588,1.2595,1.2625,1.2626,1.2629,1.2614,1.2655,1.2631,1.2628,1.2626,1.2573,1.2566,1.256,0,0,0,0,0,1.2436,1.2417,1.2435,1.244,1.2474,1.2487,1.2492,1.2527,1.2547,1.254,1.2566,1.2594,1.2614,1.2626,1.2629,1.2615,1.2632,1.2629,1.2626,1.2576,1.2567,1.256,0,0,0,0,0,0,1.2374,1.2422,1.2443,1.2436,1.2457,1.2497,1.249,1.2516,1.2531,1.2535,1.2577,1.2585,1.258,1.2597,1.261,1.2598,1.2627,1.2625,1.2587,1.2579,1.2573,1.2569,1.2656,0,0,0,0,0,1.236,1.2367,1.2408,1.2398,1.2408,1.2447,1.2454,1.2479,1.2502,1.2511,1.2537,1.2557,1.2569,1.2575,1.2587,1.2575,1.2585,1.2567,1.2561,1.2555,1.2553,1.255,1.2543,1.2615,1.2615,1.2615,0,0,1.233,1.2357,1.2359,1.2387,1.2406,1.2412,1.2454,1.2458,1.2463,1.2511,1.2514,1.2534,1.256,1.2555,1.2554,1.2569,1.2535,1.2552,1.2547,1.2548,1.2547,1.254,1.2534,1.2613,1.2614,1.2614,0,0,1.2279,1.23,1.2295,1.2314,1.2343,1.237,1.2369,1.2405,1.2421,1.2424,1.2461,1.2468,1.2485,1.2503,1.2515,1.2473,1.25,1.2476,1.2442,1.2439,1.2433,1.2429,1.2415,1.241,1.2473,1.2473,1.2473,0,1.2238,1.225,1.2289,1.2292,1.2304,1.2349,1.2345,1.2361,1.2392,1.2399,1.2416,1.2441,1.2461,1.2462,1.2453,1.246,1.246,1.2472,1.2431,1.2427,1.2423,1.2411,1.2405,1.247,1.2471,1.2471,1.2471,0,1.2199,1.2207,1.2199,1.223,1.2241,1.224,1.2279,1.2285,1.231,1.2335,1.2339,1.2365,1.2385,1.2387,1.241,1.2391,1.24,1.2423,1.2453,1.2412,1.2402,1.2397,1.2466,1.2467,1.2468,1.2469,0,0,1.211,1.2164,1.2161,1.2177,1.2213,1.222,1.2222,1.2242,1.2247,1.2268,1.2271,1.2286,1.2309,1.2321,1.2347,1.2345,1.2313,1.2369,1.237,1.2358,1.2296,1.2279,1.2273,1.2331,1.233,1.2329,1.2294,0,1.2067,1.2074,1.211,1.2106,1.2114,1.2159,1.2161,1.2183,1.2207,1.2217,1.2243,1.2254,1.2282,1.2291,1.229,1.2317,1.2301,1.232,1.2335,1.2335,1.2328,1.2267,1.2249,1.2214,1.229,1.2289,1.2289,0,1.2017,1.2036,1.2034,1.2073,1.2078,1.2079,1.2102,1.2111,1.2138,1.2156,1.2171,1.2201,1.2207,1.2234,1.2242,1.2254,1.2263,1.2277,1.2277,1.228,1.231,1.227,1.2203,1.2199,1.2282,1.2283,1.2283,0,1.1954,1.1979,1.1982,1.1994,1.2039,1.2039,1.2057,1.2086,1.2097,1.2117,1.2125,1.2144,1.2155,1.2169,1.2204,1.2221,1.2209,1.2239,1.2224,1.2223,1.222,1.222,1.2155,1.2223,1.2223,1.2223,1.2224,0,1.1902,1.1899,1.1955,1.1956,1.1955,1.1997,1.1994,1.2017,1.2043,1.205,1.2088,1.2094,1.2139,1.215,1.2177,1.2181,1.2185,1.22,1.2207,1.2197,1.2195,1.2203,1.2207,1.2222,1.2222,1.2223,1.2223,0,1.1832,1.1868,1.1875,1.1918,1.1929,1.1926,1.1963,1.1966,1.1993,1.2002,1.2006,1.2048,1.2063,1.2099,1.2123,1.2142,1.2139,1.2151,1.213,1.2135,1.2119,1.212,1.2058,1.2052,1.2123,1.2122,1.2121,0,1.1797,1.1796,1.184,1.1848,1.1866,1.1878,1.189,1.1931,1.1942,1.1975,1.1974,1.1993,1.201,1.2033,1.2065,1.2084,1.2099,1.2076,1.2102,1.2092,1.21,1.21,1.2101,1.207,1.2069,1.2068,1.2067,0,1.1731,1.175,1.1766,1.1789,1.1803,1.1823,1.1845,1.1849,1.1896,1.1906,1.1923,1.1937,1.1963,1.1981,1.2006,1.2025,1.2054,1.2059,1.2057,1.2047,1.2035,1.2043,1.2115,1.206,1.2061,1.2061,1.2062,1.2062,1.1679,1.1681,1.1713,1.173,1.1751,1.1772,1.1778,1.1806,1.1821,1.1847,1.187,1.1885,1.1915,1.1951,1.1969,1.1982,1.1996,1.1992,1.1992,1.1991,1.1987,1.2032,1.1986,1.1986,1.1986,1.1987,1.1987,0,1.1617,1.164,1.1655,1.1686,1.17,1.1727,1.1753,1.1763,1.1776,1.1802,1.1819,1.1839,1.1858,1.1893,1.1914,1.1918,1.1932,1.1922,1.1923,1.1927,1.1972,1.1972,1.1911,1.1911,1.1911,1.1911,1.1911,1.1911,1.1586,1.1592,1.1615,1.1632,1.1656,1.1672,1.1685,1.1704,1.1725,1.1746,1.1763,1.1786,1.1815,1.184,1.1859,1.1869,1.1875,1.1862,1.1876,1.1917,1.1924,1.1931,1.1931,1.1862,1.1862,1.183,1.183,1.183]}]]